• In Switzerland
  • List of Countries
  • For 7 days
  • Water Temperature
  • Satellite Maps
  • Weather Map
  • Weather Widgets
  • user-avatar
    Login

    Hourly Weather Korçe

    Today, 19 January, Friday

    Time Temperature Precipitation Wind Pressure Humidity
    00:00 -3°C° 0 mm 2 mps 665 mmHg 58%
    01:00 -3°C° 0 mm 2 mps 665 mmHg 61%
    02:00 -3°C° 0 mm 2 mps 664 mmHg 63%
    03:00 -3°C° 0 mm 2 mps 664 mmHg 65%
    04:00 -3°C° 0 mm 2 mps 664 mmHg 66%
    05:00 -3°C° 0 mm 2 mps 664 mmHg 67%
    06:00 -3°C° 0 mm 2 mps 664 mmHg 68%
    07:00 -4°C° 0 mm 3 mps 664 mmHg 70%
    08:00 -1°C° 0 mm 3 mps 665 mmHg 70%
    09:00 +1°C° 0 mm 3 mps 665 mmHg 69%
    10:00 +2°C° 0 mm 3 mps 665 mmHg 69%
    11:00 +3°C° 0 mm 3 mps 665 mmHg 68%
    12:00 +4°C° 0 mm 3 mps 665 mmHg 67%
    13:00 +4°C° 0 mm 3 mps 665 mmHg 72%
    14:00 +4°C° 0 mm 3 mps 665 mmHg 76%
    15:00 +3°C° 0 mm 3 mps 665 mmHg 80%
    16:00 +4°C° 0 mm 2 mps 664 mmHg 84%
    17:00 +3°C° 0 mm 2 mps 664 mmHg 87%
    18:00 +1°C° 0 mm 3 mps 664 mmHg 89%
    19:00 0°C° 0 mm 3 mps 664 mmHg 91%
    20:00 0°C° 0 mm 3 mps 664 mmHg 92%
    21:00 0°C° 0 mm 3 mps 664 mmHg 92%
    22:00 0°C° 0 mm 3 mps 664 mmHg 92%
    23:00 +1°C° 0 mm 3 mps 664 mmHg 93%

    Tomorrow, 20 January, Saturday

    Time Temperature Precipitation Wind Pressure Humidity
    00:00 +1°C° 0 mm 3 mps 664 mmHg 93%
    01:00 +1°C° 0 mm 3 mps 664 mmHg 93%
    02:00 +1°C° 0.1 mm 3 mps 663 mmHg 93%
    03:00 +1°C° 0.1 mm 3 mps 663 mmHg 93%
    04:00 +1°C° 0.1 mm 3 mps 663 mmHg 94%
    05:00 +1°C° 0.1 mm 3 mps 663 mmHg 94%
    06:00 +1°C° 0.1 mm 3 mps 663 mmHg 94%
    07:00 +2°C° 0.1 mm 3 mps 662 mmHg 94%
    08:00 +2°C° 0.1 mm 3 mps 663 mmHg 92%
    09:00 +3°C° 0.1 mm 3 mps 663 mmHg 91%
    10:00 +4°C° 0.1 mm 3 mps 663 mmHg 89%
    11:00 +4°C° 0.4 mm 3 mps 662 mmHg 89%
    12:00 +4°C° 0.4 mm 3 mps 662 mmHg 89%
    13:00 +5°C° 0.4 mm 3 mps 662 mmHg 88%
    14:00 +4°C° 0.8 mm 3 mps 662 mmHg 89%
    15:00 +4°C° 0.8 mm 3 mps 661 mmHg 90%
    16:00 +5°C° 0.8 mm 2 mps 661 mmHg 91%
    17:00 +4°C° 0.3 mm 2 mps 661 mmHg 92%
    18:00 +4°C° 0.3 mm 2 mps 662 mmHg 93%
    19:00 +4°C° 0.3 mm 1 mps 662 mmHg 94%
    20:00 +4°C° 0 mm 1 mps 662 mmHg 94%
    21:00 +4°C° 0 mm 1 mps 662 mmHg 94%
    22:00 +4°C° 0 mm 1 mps 662 mmHg 95%
    23:00 +3°C° 0 mm 1 mps 662 mmHg 95%

    Day after tomorrow, 21 January, Sunday

    Time Temperature Precipitation Wind Pressure Humidity
    00:00 +3°C° 0 mm 1 mps 662 mmHg 95%
    01:00 +2°C° 0 mm 2 mps 661 mmHg 95%
    02:00 +2°C° 0 mm 2 mps 661 mmHg 94%
    03:00 +1°C° 0 mm 2 mps 661 mmHg 94%
    04:00 +1°C° 0 mm 2 mps 660 mmHg 94%
    05:00 +1°C° 0 mm 2 mps 660 mmHg 93%
    06:00 +2°C° 0 mm 2 mps 660 mmHg 93%
    07:00 +2°C° 0 mm 2 mps 659 mmHg 93%
    08:00 +3°C° 0.1 mm 2 mps 659 mmHg 89%
    09:00 +4°C° 0.1 mm 2 mps 659 mmHg 86%
    10:00 +5°C° 0.1 mm 2 mps 659 mmHg 83%
    11:00 +5°C° 0.5 mm 2 mps 659 mmHg 82%
    12:00 +5°C° 0.5 mm 2 mps 658 mmHg 82%
    13:00 +5°C° 0.5 mm 2 mps 658 mmHg 82%
    14:00 +4°C° 1.2 mm 2 mps 658 mmHg 86%
    15:00 +5°C° 1.2 mm 1 mps 657 mmHg 90%
    16:00 +4°C° 1.2 mm 1 mps 657 mmHg 93%
    17:00 +4°C° 0.4 mm 1 mps 657 mmHg 94%
    18:00 +4°C° 0.4 mm 1 mps 657 mmHg 94%
    19:00 +3°C° 0.4 mm 1 mps 657 mmHg 94%
    20:00 +2°C° 0 mm 2 mps 657 mmHg 94%
    21:00 +2°C° 0 mm 2 mps 658 mmHg 95%
    22:00 +1°C° 0 mm 2 mps 658 mmHg 95%
    23:00 +1°C° 0.1 mm 2 mps 658 mmHg 94%

    22 January, Monday

    Time Temperature Precipitation Wind Pressure Humidity
    00:00 +1°C° 0.1 mm 2 mps 658 mmHg 94%
    01:00 +1°C° 0.1 mm 2 mps 658 mmHg 94%
    02:00 +1°C° 0 mm 2 mps 659 mmHg 94%
    03:00 -1°C° 0 mm 2 mps 659 mmHg 94%
    04:00 -1°C° 0 mm 2 mps 659 mmHg 94%
    05:00 -2°C° 0 mm 2 mps 659 mmHg 93%
    06:00 -2°C° 0 mm 2 mps 660 mmHg 92%
    07:00 -2°C° 0 mm 2 mps 660 mmHg 92%
    08:00 -2°C° 0 mm 2 mps 661 mmHg 85%
    09:00 -1°C° 0 mm 3 mps 661 mmHg 79%
    10:00 0°C° 0 mm 3 mps 662 mmHg 73%
    11:00 0°C° 0 mm 3 mps 662 mmHg 67%
    12:00 +1°C° 0 mm 3 mps 662 mmHg 62%
    13:00 +2°C° 0 mm 3 mps 663 mmHg 57%
    14:00 +1°C° 0 mm 3 mps 663 mmHg 58%
    15:00 +1°C° 0 mm 3 mps 663 mmHg 60%
    16:00 +1°C° 0 mm 2 mps 663 mmHg 62%
    17:00 -1°C° 0 mm 2 mps 664 mmHg 64%
    18:00 -2°C° 0 mm 2 mps 664 mmHg 67%
    19:00 -3°C° 0 mm 2 mps 664 mmHg 70%
    20:00 -3°C° 0 mm 2 mps 664 mmHg 70%
    21:00 -3°C° 0 mm 2 mps 665 mmHg 70%
    22:00 -3°C° 0 mm 2 mps 665 mmHg 69%
    23:00 -1°C° 0 mm 1 mps 665 mmHg 69%

    23 January, Tuesday

    Time Temperature Precipitation Wind Pressure Humidity
    00:00 -1°C° 0 mm 1 mps 665 mmHg 68%
    01:00 -1°C° 0 mm 1 mps 665 mmHg 68%
    02:00 -1°C° 0 mm 1 mps 665 mmHg 66%
    03:00 -1°C° 0 mm 1 mps 665 mmHg 65%
    04:00 -1°C° 0 mm 1 mps 665 mmHg 64%
    05:00 -1°C° 0 mm 1 mps 665 mmHg 62%
    06:00 -1°C° 0 mm 1 mps 665 mmHg 60%
    07:00 -1°C° 0 mm 1 mps 666 mmHg 58%
    08:00 +1°C° 0 mm 1 mps 666 mmHg 53%
    09:00 +3°C° 0 mm 1 mps 667 mmHg 48%
    10:00 +5°C° 0 mm 1 mps 668 mmHg 42%
    11:00 +5°C° 0 mm 1 mps 668 mmHg 43%
    12:00 +5°C° 0 mm 1 mps 668 mmHg 44%
    13:00 +6°C° 0 mm 1 mps 668 mmHg 45%
    14:00 +5°C° 0 mm 1 mps 668 mmHg 51%
    15:00 +5°C° 0 mm 1 mps 668 mmHg 57%
    16:00 +4°C° 0 mm 1 mps 668 mmHg 62%
    17:00 +3°C° 0 mm 1 mps 668 mmHg 65%
    18:00 +2°C° 0 mm 1 mps 669 mmHg 67%
    19:00 +1°C° 0 mm 1 mps 669 mmHg 69%
    20:00 +1°C° 0 mm 1 mps 669 mmHg 70%
    21:00 0°C° 0 mm 1 mps 670 mmHg 71%
    22:00 0°C° 0 mm 1 mps 670 mmHg 71%
    23:00 -2°C° 0 mm 2 mps 670 mmHg 71%

    24 January, Wednesday

    Time Temperature Precipitation Wind Pressure Humidity
    00:00 -2°C° 0 mm 2 mps 670 mmHg 72%
    01:00 -2°C° 0 mm 2 mps 671 mmHg 72%
    02:00 -3°C° 0 mm 2 mps 671 mmHg 73%
    03:00 -3°C° 0 mm 2 mps 671 mmHg 73%
    04:00 -3°C° 0 mm 2 mps 671 mmHg 74%
    05:00 -3°C° 0 mm 2 mps 671 mmHg 74%
    06:00 -3°C° 0 mm 2 mps 672 mmHg 75%
    07:00 -3°C° 0 mm 2 mps 672 mmHg 76%
    08:00 -2°C° 0 mm 2 mps 673 mmHg 71%
    09:00 +1°C° 0 mm 2 mps 674 mmHg 66%
    10:00 +3°C° 0 mm 2 mps 674 mmHg 61%
    11:00 +3°C° 0 mm 2 mps 675 mmHg 58%
    12:00 +4°C° 0 mm 2 mps 675 mmHg 55%
    13:00 +6°C° 0 mm 1 mps 675 mmHg 52%
    14:00 +5°C° 0 mm 1 mps 674 mmHg 55%
    15:00 +5°C° 0 mm 1 mps 674 mmHg 59%
    16:00 +4°C° 0 mm 1 mps 674 mmHg 62%
    17:00 +3°C° 0 mm 1 mps 674 mmHg 65%
    18:00 +2°C° 0 mm 1 mps 674 mmHg 68%
    19:00 +1°C° 0 mm 1 mps 674 mmHg 71%
    20:00 0°C° 0 mm 1 mps 674 mmHg 70%
    21:00 0°C° 0 mm 1 mps 674 mmHg 70%
    22:00 0°C° 0 mm 1 mps 674 mmHg 70%
    23:00 0°C° 0 mm 1 mps 674 mmHg 69%
    Show more